Information on these data can be found in provided Readme document
Contact Info: Zachary Fasnacht (zachary.fasnacht@ssaihq.com); Nickolay Krotkov (nickolay.a.krotkov@nasa.gov); Lok Lamsal (lok.lamsal@nasa.gov)

FillValue: -999.
ScaleFactor: 1e15
Units: molecules/cm^2

Date(yyyy-mm-dd),City,Country,LonCenter,LatCenter,BoundingCoordinates,Median,Q1,Q3,Mean,Baseline_Median,Baseline_Q1,Baseline_Q3,Baseline_Mean,NumGoodSamples,NumTotalSamples
2015-01-01,Athens,Greece,23.7167,37.9667,[23.2167 37.4667 24.2167 38.4667],2.584,1.769,3.361,2.626,2.62,1.722,3.824,2.964,73.0,572.0
2015-01-02,Athens,Greece,23.7167,37.9667,[23.2167 37.4667 24.2167 38.4667],1.955,1.353,3.332,2.365,2.627,1.748,3.929,3.04,39.0,578.0
2015-01-03,Athens,Greece,23.7167,37.9667,[23.2167 37.4667 24.2167 38.4667],1.721,0.709,2.883,1.869,2.46,1.428,3.985,2.925,60.0,583.0
2015-01-04,Athens,Greece,23.7167,37.9667,[23.2167 37.4667 24.2167 38.4667],1.707,0.636,2.883,1.818,2.43,1.477,3.781,2.796,91.0,592.0
2015-01-05,Athens,Greece,23.7167,37.9667,[23.2167 37.4667 24.2167 38.4667],1.707,0.636,2.883,1.818,2.354,1.436,3.765,2.769,91.0,592.0
2015-01-06,Athens,Greece,23.7167,37.9667,[23.2167 37.4667 24.2167 38.4667],1.567,0.524,2.536,1.731,2.457,1.511,4.037,2.785,101.0,584.0
2015-01-07,Athens,Greece,23.7167,37.9667,[23.2167 37.4667 24.2167 38.4667],1.567,0.524,2.536,1.731,2.456,1.443,4.109,2.779,101.0,576.0
2015-01-08,Athens,Greece,23.7167,37.9667,[23.2167 37.4667 24.2167 38.4667],2.879,1.237,4.802,3.2,2.531,1.397,4.358,2.951,136.0,575.0
2015-01-09,Athens,Greece,23.7167,37.9667,[23.2167 37.4667 24.2167 38.4667],2.879,1.237,4.802,3.2,2.558,1.416,4.286,2.949,136.0,577.0
2015-01-10,Athens,Greece,23.7167,37.9667,[23.2167 37.4667 24.2167 38.4667],2.883,1.233,4.926,3.202,2.578,1.449,4.35,2.956,129.0,535.0
2015-01-11,Athens,Greece,23.7167,37.9667,[23.2167 37.4667 24.2167 38.4667],2.879,1.233,4.926,3.183,2.553,1.422,4.286,2.9,137.0,541.0
2015-01-12,Athens,Greece,23.7167,37.9667,[23.2167 37.4667 24.2167 38.4667],2.883,1.197,4.945,3.226,2.65,1.399,4.262,2.892,133.0,541.0
2015-01-13,Athens,Greece,23.7167,37.9667,[23.2167 37.4667 24.2167 38.4667],2.412,1.106,4.734,3.055,2.548,1.378,4.222,2.851,157.0,545.0
2015-01-14,Athens,Greece,23.7167,37.9667,[23.2167 37.4667 24.2167 38.4667],2.39,1.086,4.702,3.011,2.506,1.287,4.129,2.792,151.0,542.0
2015-01-15,Athens,Greece,23.7167,37.9667,[23.2167 37.4667 24.2167 38.4667],2.403,1.136,4.702,3.024,2.506,1.265,4.131,2.795,162.0,536.0
2015-01-16,Athens,Greece,23.7167,37.9667,[23.2167 37.4667 24.2167 38.4667],2.435,1.106,4.926,3.112,2.48,1.223,4.153,2.788,150.0,537.0
2015-01-17,Athens,Greece,23.7167,37.9667,[23.2167 37.4667 24.2167 38.4667],2.435,1.106,4.926,3.112,2.456,1.124,4.049,2.704,150.0,535.0
2015-01-18,Athens,Greece,23.7167,37.9667,[23.2167 37.4667 24.2167 38.4667],3.327,1.463,5.981,3.714,2.535,1.171,4.097,2.735,119.0,538.0
2015-01-19,Athens,Greece,23.7167,37.9667,[23.2167 37.4667 24.2167 38.4667],2.942,1.765,5.061,3.59,2.467,1.234,4.105,2.756,107.0,541.0
2015-01-20,Athens,Greece,23.7167,37.9667,[23.2167 37.4667 24.2167 38.4667],2.942,1.765,5.061,3.59,2.34,1.257,3.895,2.701,107.0,548.0
2015-01-21,Athens,Greece,23.7167,37.9667,[23.2167 37.4667 24.2167 38.4667],2.959,1.972,5.269,3.764,2.141,1.209,3.767,2.561,97.0,548.0
2015-01-22,Athens,Greece,23.7167,37.9667,[23.2167 37.4667 24.2167 38.4667],2.959,1.93,5.269,3.74,2.107,1.156,3.511,2.563,98.0,538.0
2015-01-23,Athens,Greece,23.7167,37.9667,[23.2167 37.4667 24.2167 38.4667],2.021,1.26,2.939,2.182,2.005,1.057,3.154,2.353,63.0,535.0
2015-01-24,Athens,Greece,23.7167,37.9667,[23.2167 37.4667 24.2167 38.4667],2.021,1.26,2.939,2.182,1.971,1.051,3.046,2.282,63.0,536.0
2015-01-25,Athens,Greece,23.7167,37.9667,[23.2167 37.4667 24.2167 38.4667],2.021,1.26,2.939,2.182,2.015,1.098,3.195,2.424,63.0,581.0
2015-01-26,Athens,Greece,23.7167,37.9667,[23.2167 37.4667 24.2167 38.4667],1.972,1.327,2.939,2.173,2.047,1.129,3.193,2.439,67.0,581.0
2015-01-27,Athens,Greece,23.7167,37.9667,[23.2167 37.4667 24.2167 38.4667],1.972,1.26,2.939,2.083,2.118,1.203,3.465,2.545,78.0,588.0
2015-01-28,Athens,Greece,23.7167,37.9667,[23.2167 37.4667 24.2167 38.4667],1.972,1.421,2.942,2.199,2.117,1.216,3.489,2.566,54.0,585.0
2015-01-29,Athens,Greece,23.7167,37.9667,[23.2167 37.4667 24.2167 38.4667],1.923,1.216,2.939,2.023,2.231,1.248,3.618,2.601,80.0,586.0
2015-01-30,Athens,Greece,23.7167,37.9667,[23.2167 37.4667 24.2167 38.4667],1.841,1.134,2.939,1.882,2.22,1.284,3.683,2.662,69.0,585.0
2015-01-31,Athens,Greece,23.7167,37.9667,[23.2167 37.4667 24.2167 38.4667],1.972,1.106,2.942,2.271,2.262,1.329,3.697,2.714,89.0,581.0
2015-02-01,Athens,Greece,23.7167,37.9667,[23.2167 37.4667 24.2167 38.4667],1.972,1.106,2.942,2.271,2.211,1.281,3.559,2.673,89.0,580.0
2015-02-02,Athens,Greece,23.7167,37.9667,[23.2167 37.4667 24.2167 38.4667],1.972,1.106,2.942,2.271,2.246,1.315,3.625,2.714,89.0,577.0
2015-02-03,Athens,Greece,23.7167,37.9667,[23.2167 37.4667 24.2167 38.4667],1.702,0.655,3.266,2.316,2.219,1.273,3.692,2.734,70.0,582.0
2015-02-04,Athens,Greece,23.7167,37.9667,[23.2167 37.4667 24.2167 38.4667],1.741,0.848,3.389,2.314,2.253,1.358,3.723,2.742,74.0,587.0
2015-02-05,Athens,Greece,23.7167,37.9667,[23.2167 37.4667 24.2167 38.4667],1.741,0.848,3.266,2.281,2.223,1.345,3.648,2.701,79.0,594.0
2015-02-06,Athens,Greece,23.7167,37.9667,[23.2167 37.4667 24.2167 38.4667],1.741,0.848,3.266,2.3,2.212,1.341,3.793,2.735,78.0,597.0
2015-02-07,Athens,Greece,23.7167,37.9667,[23.2167 37.4667 24.2167 38.4667],1.741,0.848,3.266,2.3,2.03,1.168,3.437,2.559,78.0,586.0
2015-02-08,Athens,Greece,23.7167,37.9667,[23.2167 37.4667 24.2167 38.4667],1.741,0.848,3.266,2.3,2.003,1.227,3.431,2.514,78.0,580.0
2015-02-09,Athens,Greece,23.7167,37.9667,[23.2167 37.4667 24.2167 38.4667],1.741,0.837,3.266,2.276,1.758,0.987,2.936,2.157,84.0,580.0
2015-02-10,Athens,Greece,23.7167,37.9667,[23.2167 37.4667 24.2167 38.4667],1.741,0.655,2.678,2.301,1.62,0.787,2.63,2.086,72.0,584.0
2015-02-11,Athens,Greece,23.7167,37.9667,[23.2167 37.4667 24.2167 38.4667],1.888,0.807,3.266,2.478,1.519,0.714,2.53,1.934,61.0,543.0
2015-02-12,Athens,Greece,23.7167,37.9667,[23.2167 37.4667 24.2167 38.4667],1.741,0.619,2.732,2.265,1.561,0.778,2.466,1.894,73.0,553.0
2015-02-13,Athens,Greece,23.7167,37.9667,[23.2167 37.4667 24.2167 38.4667],1.581,1.106,2.381,2.145,1.653,0.907,2.592,2.03,59.0,554.0
2015-02-14,Athens,Greece,23.7167,37.9667,[23.2167 37.4667 24.2167 38.4667],1.581,1.106,2.39,2.211,1.573,0.755,2.47,1.865,85.0,552.0
2015-02-15,Athens,Greece,23.7167,37.9667,[23.2167 37.4667 24.2167 38.4667],1.503,1.118,2.129,1.747,1.618,0.797,2.511,1.846,65.0,548.0
2015-02-16,Athens,Greece,23.7167,37.9667,[23.2167 37.4667 24.2167 38.4667],1.503,1.118,2.129,1.747,1.571,0.853,2.528,1.869,65.0,543.0
2015-02-17,Athens,Greece,23.7167,37.9667,[23.2167 37.4667 24.2167 38.4667],1.503,1.118,2.129,1.747,1.591,0.814,2.585,1.867,65.0,543.0
2015-02-18,Athens,Greece,23.7167,37.9667,[23.2167 37.4667 24.2167 38.4667],1.882,1.185,2.763,2.023,1.735,0.849,2.726,1.925,98.0,541.0
2015-02-19,Athens,Greece,23.7167,37.9667,[23.2167 37.4667 24.2167 38.4667],1.933,1.185,2.763,2.012,1.761,0.889,2.827,1.951,94.0,545.0
2015-02-20,Athens,Greece,23.7167,37.9667,[23.2167 37.4667 24.2167 38.4667],1.933,1.134,2.763,2.027,1.783,0.885,2.807,1.978,89.0,549.0
2015-02-21,Athens,Greece,23.7167,37.9667,[23.2167 37.4667 24.2167 38.4667],1.799,1.134,2.763,2.086,1.738,0.81,2.682,1.924,104.0,555.0
2015-02-22,Athens,Greece,23.7167,37.9667,[23.2167 37.4667 24.2167 38.4667],1.799,1.134,2.763,2.086,1.75,0.856,2.747,2.008,104.0,556.0
2015-02-23,Athens,Greece,23.7167,37.9667,[23.2167 37.4667 24.2167 38.4667],1.799,1.118,2.917,2.239,1.773,0.883,2.769,2.02,128.0,546.0
2015-02-24,Athens,Greece,23.7167,37.9667,[23.2167 37.4667 24.2167 38.4667],1.829,1.134,2.917,2.251,1.81,0.939,2.795,2.08,122.0,539.0
2015-02-25,Athens,Greece,23.7167,37.9667,[23.2167 37.4667 24.2167 38.4667],1.852,1.19,2.763,2.183,1.901,1.093,2.883,2.137,155.0,539.0
2015-02-26,Athens,Greece,23.7167,37.9667,[23.2167 37.4667 24.2167 38.4667],1.852,1.19,2.763,2.183,1.895,1.126,2.88,2.136,155.0,583.0
2015-02-27,Athens,Greece,23.7167,37.9667,[23.2167 37.4667 24.2167 38.4667],1.933,1.213,2.763,2.214,1.917,1.106,2.929,2.168,150.0,582.0
2015-02-28,Athens,Greece,23.7167,37.9667,[23.2167 37.4667 24.2167 38.4667],2.062,1.263,3.008,2.347,1.847,1.04,2.854,2.084,141.0,589.0
2015-03-01,Athens,Greece,23.7167,37.9667,[23.2167 37.4667 24.2167 38.4667],1.859,1.064,2.917,2.216,1.955,1.05,2.969,2.161,119.0,588.0
2015-03-02,Athens,Greece,23.7167,37.9667,[23.2167 37.4667 24.2167 38.4667],1.852,1.091,2.917,2.208,1.93,1.048,2.943,2.141,121.0,588.0
2015-03-03,Athens,Greece,23.7167,37.9667,[23.2167 37.4667 24.2167 38.4667],1.852,1.091,2.917,2.208,1.832,0.989,2.8,2.093,121.0,583.0
2015-03-04,Athens,Greece,23.7167,37.9667,[23.2167 37.4667 24.2167 38.4667],2.032,1.204,3.041,2.384,1.797,0.98,2.758,2.074,134.0,578.0
2015-03-05,Athens,Greece,23.7167,37.9667,[23.2167 37.4667 24.2167 38.4667],1.852,1.064,3.008,2.391,1.737,0.906,2.816,2.098,101.0,577.0
2015-03-06,Athens,Greece,23.7167,37.9667,[23.2167 37.4667 24.2167 38.4667],1.852,1.064,3.008,2.391,1.686,0.833,2.791,2.072,101.0,573.0
2015-03-07,Athens,Greece,23.7167,37.9667,[23.2167 37.4667 24.2167 38.4667],1.852,1.064,3.008,2.391,1.687,0.824,2.788,2.076,101.0,576.0
2015-03-08,Athens,Greece,23.7167,37.9667,[23.2167 37.4667 24.2167 38.4667],1.773,1.035,2.96,2.223,1.726,0.847,2.992,2.095,111.0,581.0
2015-03-09,Athens,Greece,23.7167,37.9667,[23.2167 37.4667 24.2167 38.4667],1.793,1.064,2.96,2.219,1.722,0.854,2.94,2.051,119.0,590.0
2015-03-10,Athens,Greece,23.7167,37.9667,[23.2167 37.4667 24.2167 38.4667],1.793,1.064,2.78,2.069,1.735,0.888,2.939,2.059,95.0,592.0
2015-03-11,Athens,Greece,23.7167,37.9667,[23.2167 37.4667 24.2167 38.4667],1.826,1.064,3.041,2.15,1.829,0.894,2.971,2.069,110.0,584.0
2015-03-12,Athens,Greece,23.7167,37.9667,[23.2167 37.4667 24.2167 38.4667],1.661,1.002,3.421,2.241,1.818,0.898,3.019,2.052,77.0,578.0
2015-03-13,Athens,Greece,23.7167,37.9667,[23.2167 37.4667 24.2167 38.4667],1.661,1.002,3.421,2.238,1.826,0.907,3.092,2.106,79.0,578.0
2015-03-14,Athens,Greece,23.7167,37.9667,[23.2167 37.4667 24.2167 38.4667],1.65,1.002,3.457,2.286,1.79,0.944,2.999,2.087,72.0,584.0
2015-03-15,Athens,Greece,23.7167,37.9667,[23.2167 37.4667 24.2167 38.4667],1.661,0.924,3.499,2.301,1.821,0.908,3.031,2.132,69.0,542.0
2015-03-16,Athens,Greece,23.7167,37.9667,[23.2167 37.4667 24.2167 38.4667],2.441,1.149,3.758,2.578,1.809,0.935,2.954,2.078,65.0,551.0
2015-03-17,Athens,Greece,23.7167,37.9667,[23.2167 37.4667 24.2167 38.4667],1.465,0.76,3.421,2.097,1.775,0.905,2.873,2.026,70.0,550.0
2015-03-18,Athens,Greece,23.7167,37.9667,[23.2167 37.4667 24.2167 38.4667],1.465,0.76,3.421,2.097,1.871,0.951,2.97,2.093,70.0,552.0
2015-03-19,Athens,Greece,23.7167,37.9667,[23.2167 37.4667 24.2167 38.4667],1.223,0.728,2.705,1.658,1.943,1.077,3.029,2.201,57.0,547.0
2015-03-20,Athens,Greece,23.7167,37.9667,[23.2167 37.4667 24.2167 38.4667],1.223,0.728,2.653,1.609,1.968,1.167,2.938,2.169,60.0,539.0
2015-03-21,Athens,Greece,23.7167,37.9667,[23.2167 37.4667 24.2167 38.4667],1.223,0.728,2.653,1.609,1.97,1.167,2.945,2.181,60.0,538.0
2015-03-22,Athens,Greece,23.7167,37.9667,[23.2167 37.4667 24.2167 38.4667],1.178,0.728,2.653,1.6,1.955,1.158,2.945,2.159,62.0,537.0
2015-03-23,Athens,Greece,23.7167,37.9667,[23.2167 37.4667 24.2167 38.4667],1.018,0.388,1.991,1.48,2.001,1.16,3.043,2.297,37.0,538.0
2015-03-24,Athens,Greece,23.7167,37.9667,[23.2167 37.4667 24.2167 38.4667],1.223,0.661,2.005,1.482,1.974,1.148,2.963,2.23,69.0,542.0
2015-03-25,Athens,Greece,23.7167,37.9667,[23.2167 37.4667 24.2167 38.4667],1.223,0.633,2.231,1.484,1.872,1.049,3.011,2.186,97.0,550.0
2015-03-26,Athens,Greece,23.7167,37.9667,[23.2167 37.4667 24.2167 38.4667],1.134,0.633,1.986,1.294,1.895,1.049,3.035,2.194,82.0,552.0
2015-03-27,Athens,Greece,23.7167,37.9667,[23.2167 37.4667 24.2167 38.4667],1.223,0.661,2.231,1.528,1.88,1.017,3.028,2.197,108.0,543.0
2015-03-28,Athens,Greece,23.7167,37.9667,[23.2167 37.4667 24.2167 38.4667],1.223,0.661,2.231,1.527,1.877,1.095,2.983,2.206,106.0,536.0
2015-03-29,Athens,Greece,23.7167,37.9667,[23.2167 37.4667 24.2167 38.4667],1.223,0.661,2.231,1.561,1.924,1.082,3.016,2.232,109.0,533.0
2015-03-30,Athens,Greece,23.7167,37.9667,[23.2167 37.4667 24.2167 38.4667],1.223,0.661,2.231,1.561,1.918,1.085,3.017,2.251,109.0,580.0
2015-03-31,Athens,Greece,23.7167,37.9667,[23.2167 37.4667 24.2167 38.4667],1.373,0.728,2.417,1.667,2.027,1.15,3.051,2.316,118.0,580.0
2015-04-01,Athens,Greece,23.7167,37.9667,[23.2167 37.4667 24.2167 38.4667],1.794,0.841,2.572,1.888,2.14,1.186,3.208,2.405,113.0,588.0
2015-04-02,Athens,Greece,23.7167,37.9667,[23.2167 37.4667 24.2167 38.4667],1.794,0.841,2.572,1.888,2.078,1.111,3.123,2.36,113.0,590.0
2015-04-03,Athens,Greece,23.7167,37.9667,[23.2167 37.4667 24.2167 38.4667],1.514,0.635,2.475,1.676,2.046,1.08,3.061,2.282,139.0,593.0
2015-04-04,Athens,Greece,23.7167,37.9667,[23.2167 37.4667 24.2167 38.4667],1.574,0.656,2.529,1.706,2.034,0.918,3.045,2.217,136.0,587.0
2015-04-05,Athens,Greece,23.7167,37.9667,[23.2167 37.4667 24.2167 38.4667],1.632,0.635,2.536,1.739,2.023,0.912,3.052,2.226,165.0,579.0
2015-04-06,Athens,Greece,23.7167,37.9667,[23.2167 37.4667 24.2167 38.4667],1.632,0.633,2.571,1.745,1.97,0.909,2.975,2.201,163.0,578.0
2015-04-07,Athens,Greece,23.7167,37.9667,[23.2167 37.4667 24.2167 38.4667],1.861,0.895,2.783,2.029,2.039,0.984,2.95,2.194,191.0,577.0
2015-04-08,Athens,Greece,23.7167,37.9667,[23.2167 37.4667 24.2167 38.4667],1.935,1.012,3.203,2.21,2.046,0.988,3.02,2.245,151.0,578.0
2015-04-09,Athens,Greece,23.7167,37.9667,[23.2167 37.4667 24.2167 38.4667],2.071,1.155,3.527,2.529,2.084,1.161,3.195,2.346,163.0,582.0
2015-04-10,Athens,Greece,23.7167,37.9667,[23.2167 37.4667 24.2167 38.4667],2.071,1.155,3.527,2.514,2.21,1.255,3.239,2.415,192.0,589.0
2015-04-11,Athens,Greece,23.7167,37.9667,[23.2167 37.4667 24.2167 38.4667],2.071,1.195,3.527,2.496,2.223,1.239,3.219,2.411,166.0,589.0
2015-04-12,Athens,Greece,23.7167,37.9667,[23.2167 37.4667 24.2167 38.4667],2.041,1.155,3.527,2.475,2.095,1.172,3.129,2.319,190.0,582.0
2015-04-13,Athens,Greece,23.7167,37.9667,[23.2167 37.4667 24.2167 38.4667],2.041,1.155,3.527,2.463,2.089,1.145,3.127,2.315,188.0,577.0
2015-04-14,Athens,Greece,23.7167,37.9667,[23.2167 37.4667 24.2167 38.4667],2.011,1.147,3.526,2.386,2.088,1.166,3.125,2.302,196.0,575.0
2015-04-15,Athens,Greece,23.7167,37.9667,[23.2167 37.4667 24.2167 38.4667],2.011,1.103,3.513,2.357,2.063,1.149,3.127,2.268,187.0,580.0
2015-04-16,Athens,Greece,23.7167,37.9667,[23.2167 37.4667 24.2167 38.4667],2.011,1.103,3.513,2.352,2.041,1.155,3.16,2.253,185.0,538.0
2015-04-17,Athens,Greece,23.7167,37.9667,[23.2167 37.4667 24.2167 38.4667],2.007,1.087,3.482,2.319,2.05,1.206,3.175,2.309,198.0,544.0
2015-04-18,Athens,Greece,23.7167,37.9667,[23.2167 37.4667 24.2167 38.4667],2.036,1.195,3.454,2.403,2.026,1.204,3.178,2.318,185.0,543.0
2015-04-19,Athens,Greece,23.7167,37.9667,[23.2167 37.4667 24.2167 38.4667],2.014,1.155,3.368,2.34,2.038,1.256,3.164,2.358,210.0,548.0
2015-04-20,Athens,Greece,23.7167,37.9667,[23.2167 37.4667 24.2167 38.4667],2.021,1.294,3.454,2.425,2.022,1.259,3.122,2.344,199.0,549.0
2015-04-21,Athens,Greece,23.7167,37.9667,[23.2167 37.4667 24.2167 38.4667],2.007,1.155,3.287,2.321,2.083,1.269,3.178,2.371,229.0,543.0
2015-04-22,Athens,Greece,23.7167,37.9667,[23.2167 37.4667 24.2167 38.4667],1.964,1.09,3.126,2.174,2.032,1.217,3.066,2.304,201.0,543.0
2015-04-23,Athens,Greece,23.7167,37.9667,[23.2167 37.4667 24.2167 38.4667],1.849,0.984,2.983,2.208,1.986,1.164,2.988,2.259,220.0,544.0
2015-04-24,Athens,Greece,23.7167,37.9667,[23.2167 37.4667 24.2167 38.4667],1.713,0.704,2.555,1.939,1.944,1.113,2.912,2.207,180.0,547.0
2015-04-25,Athens,Greece,23.7167,37.9667,[23.2167 37.4667 24.2167 38.4667],1.663,0.666,2.465,1.877,1.872,1.096,2.904,2.183,158.0,551.0
2015-04-26,Athens,Greece,23.7167,37.9667,[23.2167 37.4667 24.2167 38.4667],1.643,0.704,2.437,1.857,1.884,1.1,2.796,2.164,189.0,558.0
2015-04-27,Athens,Greece,23.7167,37.9667,[23.2167 37.4667 24.2167 38.4667],1.693,0.704,2.465,1.844,1.89,1.089,2.833,2.175,191.0,555.0
2015-04-28,Athens,Greece,23.7167,37.9667,[23.2167 37.4667 24.2167 38.4667],1.713,0.704,2.445,1.91,1.883,1.096,2.819,2.158,213.0,546.0
2015-04-29,Athens,Greece,23.7167,37.9667,[23.2167 37.4667 24.2167 38.4667],1.713,0.704,2.465,1.944,1.918,1.105,2.941,2.189,210.0,540.0
2015-04-30,Athens,Greece,23.7167,37.9667,[23.2167 37.4667 24.2167 38.4667],1.811,1.078,2.465,2.014,1.94,1.164,2.924,2.211,239.0,535.0
2015-05-01,Athens,Greece,23.7167,37.9667,[23.2167 37.4667 24.2167 38.4667],1.811,1.078,2.465,2.014,1.948,1.168,2.963,2.233,239.0,578.0
2015-05-02,Athens,Greece,23.7167,37.9667,[23.2167 37.4667 24.2167 38.4667],1.827,1.09,2.445,1.962,1.909,1.121,2.905,2.158,264.0,576.0
2015-05-03,Athens,Greece,23.7167,37.9667,[23.2167 37.4667 24.2167 38.4667],1.803,0.991,2.417,1.921,1.885,1.107,2.901,2.14,284.0,595.0
2015-05-04,Athens,Greece,23.7167,37.9667,[23.2167 37.4667 24.2167 38.4667],1.864,1.065,2.445,1.97,1.933,1.105,2.881,2.122,264.0,593.0
2015-05-05,Athens,Greece,23.7167,37.9667,[23.2167 37.4667 24.2167 38.4667],1.849,1.045,2.356,1.925,1.95,1.093,2.871,2.094,255.0,593.0
2015-05-06,Athens,Greece,23.7167,37.9667,[23.2167 37.4667 24.2167 38.4667],1.858,1.055,2.355,1.955,1.897,1.069,2.841,2.081,244.0,621.0
2015-05-07,Athens,Greece,23.7167,37.9667,[23.2167 37.4667 24.2167 38.4667],1.858,1.078,2.417,1.987,1.903,1.047,2.8,2.023,274.0,657.0
2015-05-08,Athens,Greece,23.7167,37.9667,[23.2167 37.4667 24.2167 38.4667],1.89,1.208,2.355,1.932,1.94,1.106,2.792,2.037,255.0,654.0
2015-05-09,Athens,Greece,23.7167,37.9667,[23.2167 37.4667 24.2167 38.4667],1.76,1.163,2.247,1.829,1.918,1.069,2.772,2.02,289.0,666.0
2015-05-10,Athens,Greece,23.7167,37.9667,[23.2167 37.4667 24.2167 38.4667],1.76,1.173,2.247,1.838,1.853,1.094,2.699,1.975,282.0,670.0
2015-05-11,Athens,Greece,23.7167,37.9667,[23.2167 37.4667 24.2167 38.4667],1.76,1.203,2.327,1.861,1.827,1.063,2.663,1.957,286.0,674.0
2015-05-12,Athens,Greece,23.7167,37.9667,[23.2167 37.4667 24.2167 38.4667],1.76,1.203,2.353,1.871,1.845,1.085,2.658,1.964,290.0,685.0
2015-05-13,Athens,Greece,23.7167,37.9667,[23.2167 37.4667 24.2167 38.4667],1.76,1.208,2.365,1.919,1.863,1.139,2.704,2.005,282.0,685.0
2015-05-14,Athens,Greece,23.7167,37.9667,[23.2167 37.4667 24.2167 38.4667],1.76,1.208,2.365,1.925,1.798,1.091,2.622,1.946,280.0,678.0
2015-05-15,Athens,Greece,23.7167,37.9667,[23.2167 37.4667 24.2167 38.4667],1.66,1.096,2.365,1.856,1.762,1.053,2.593,1.912,251.0,673.0
2015-05-16,Athens,Greece,23.7167,37.9667,[23.2167 37.4667 24.2167 38.4667],1.664,1.142,2.365,1.837,1.761,1.056,2.658,1.918,282.0,672.0
2015-05-17,Athens,Greece,23.7167,37.9667,[23.2167 37.4667 24.2167 38.4667],1.66,1.142,2.373,1.877,1.811,1.082,2.7,1.949,244.0,675.0
2015-05-18,Athens,Greece,23.7167,37.9667,[23.2167 37.4667 24.2167 38.4667],1.669,1.156,2.381,1.933,1.799,1.088,2.674,1.962,211.0,622.0
2015-05-19,Athens,Greece,23.7167,37.9667,[23.2167 37.4667 24.2167 38.4667],1.601,1.106,2.373,1.873,1.809,1.146,2.699,1.992,236.0,654.0
2015-05-20,Athens,Greece,23.7167,37.9667,[23.2167 37.4667 24.2167 38.4667],1.669,1.157,2.451,1.92,1.867,1.179,2.739,2.023,233.0,652.0
2015-05-21,Athens,Greece,23.7167,37.9667,[23.2167 37.4667 24.2167 38.4667],1.726,1.195,2.451,1.945,1.907,1.187,2.755,2.03,217.0,622.0
2015-05-22,Athens,Greece,23.7167,37.9667,[23.2167 37.4667 24.2167 38.4667],1.669,1.172,2.451,1.934,1.963,1.277,2.795,2.101,191.0,578.0
2015-05-23,Athens,Greece,23.7167,37.9667,[23.2167 37.4667 24.2167 38.4667],1.76,1.232,2.571,1.993,2.015,1.274,2.842,2.115,217.0,574.0
2015-05-24,Athens,Greece,23.7167,37.9667,[23.2167 37.4667 24.2167 38.4667],2.03,1.305,2.737,2.16,2.086,1.339,2.888,2.18,183.0,558.0
2015-05-25,Athens,Greece,23.7167,37.9667,[23.2167 37.4667 24.2167 38.4667],2.167,1.412,2.924,2.275,2.178,1.402,2.932,2.249,203.0,555.0
2015-05-26,Athens,Greece,23.7167,37.9667,[23.2167 37.4667 24.2167 38.4667],2.369,1.452,3.033,2.381,2.245,1.439,3.011,2.299,168.0,561.0
2015-05-27,Athens,Greece,23.7167,37.9667,[23.2167 37.4667 24.2167 38.4667],2.101,1.473,2.986,2.303,2.299,1.517,3.139,2.369,176.0,565.0
2015-05-28,Athens,Greece,23.7167,37.9667,[23.2167 37.4667 24.2167 38.4667],2.066,1.473,2.804,2.18,2.332,1.535,3.167,2.389,191.0,573.0
2015-05-29,Athens,Greece,23.7167,37.9667,[23.2167 37.4667 24.2167 38.4667],2.101,1.473,2.926,2.253,2.363,1.556,3.188,2.422,203.0,568.0
2015-05-30,Athens,Greece,23.7167,37.9667,[23.2167 37.4667 24.2167 38.4667],2.101,1.473,2.926,2.27,2.394,1.606,3.21,2.47,218.0,562.0
2015-05-31,Athens,Greece,23.7167,37.9667,[23.2167 37.4667 24.2167 38.4667],2.369,1.547,3.157,2.422,2.436,1.629,3.217,2.485,187.0,559.0
2015-06-01,Athens,Greece,23.7167,37.9667,[23.2167 37.4667 24.2167 38.4667],2.167,1.591,3.009,2.345,2.398,1.639,3.185,2.475,202.0,559.0
2015-06-02,Athens,Greece,23.7167,37.9667,[23.2167 37.4667 24.2167 38.4667],2.167,1.591,3.009,2.345,2.347,1.598,3.136,2.414,202.0,604.0
2015-06-03,Athens,Greece,23.7167,37.9667,[23.2167 37.4667 24.2167 38.4667],2.164,1.705,2.926,2.4,2.314,1.641,3.083,2.415,199.0,582.0
2015-06-04,Athens,Greece,23.7167,37.9667,[23.2167 37.4667 24.2167 38.4667],2.152,1.609,3.033,2.399,2.387,1.639,3.159,2.46,212.0,602.0
2015-06-05,Athens,Greece,23.7167,37.9667,[23.2167 37.4667 24.2167 38.4667],2.246,1.742,3.203,2.53,2.433,1.716,3.249,2.552,229.0,601.0
2015-06-06,Athens,Greece,23.7167,37.9667,[23.2167 37.4667 24.2167 38.4667],2.236,1.698,3.176,2.452,2.421,1.71,3.211,2.531,253.0,601.0
2015-06-07,Athens,Greece,23.7167,37.9667,[23.2167 37.4667 24.2167 38.4667],2.191,1.668,3.165,2.418,2.464,1.803,3.245,2.588,245.0,627.0
2015-06-08,Athens,Greece,23.7167,37.9667,[23.2167 37.4667 24.2167 38.4667],2.167,1.564,3.066,2.345,2.508,1.81,3.313,2.61,278.0,662.0
2015-06-09,Athens,Greece,23.7167,37.9667,[23.2167 37.4667 24.2167 38.4667],2.133,1.506,2.93,2.268,2.484,1.787,3.249,2.569,258.0,661.0
2015-06-10,Athens,Greece,23.7167,37.9667,[23.2167 37.4667 24.2167 38.4667],2.14,1.502,2.903,2.245,2.495,1.79,3.255,2.563,296.0,672.0
2015-06-11,Athens,Greece,23.7167,37.9667,[23.2167 37.4667 24.2167 38.4667],2.164,1.543,2.905,2.28,2.459,1.746,3.225,2.54,258.0,675.0
2015-06-12,Athens,Greece,23.7167,37.9667,[23.2167 37.4667 24.2167 38.4667],2.236,1.694,3.091,2.403,2.39,1.728,3.185,2.507,253.0,681.0
2015-06-13,Athens,Greece,23.7167,37.9667,[23.2167 37.4667 24.2167 38.4667],2.191,1.584,3.066,2.302,2.437,1.711,3.191,2.54,266.0,693.0
2015-06-14,Athens,Greece,23.7167,37.9667,[23.2167 37.4667 24.2167 38.4667],2.191,1.575,3.066,2.276,2.392,1.697,3.133,2.503,269.0,693.0
2015-06-15,Athens,Greece,23.7167,37.9667,[23.2167 37.4667 24.2167 38.4667],2.214,1.584,3.066,2.296,2.36,1.654,3.092,2.476,279.0,687.0
2015-06-16,Athens,Greece,23.7167,37.9667,[23.2167 37.4667 24.2167 38.4667],2.256,1.575,3.092,2.34,2.334,1.617,3.074,2.443,267.0,683.0
2015-06-17,Athens,Greece,23.7167,37.9667,[23.2167 37.4667 24.2167 38.4667],2.246,1.584,3.066,2.314,2.386,1.728,3.124,2.489,302.0,685.0
2015-06-18,Athens,Greece,23.7167,37.9667,[23.2167 37.4667 24.2167 38.4667],2.306,1.564,3.091,2.315,2.38,1.645,3.075,2.443,275.0,688.0
2015-06-19,Athens,Greece,23.7167,37.9667,[23.2167 37.4667 24.2167 38.4667],2.319,1.58,3.091,2.317,2.311,1.593,3.078,2.412,256.0,635.0
2015-06-20,Athens,Greece,23.7167,37.9667,[23.2167 37.4667 24.2167 38.4667],2.172,1.337,2.892,2.122,2.257,1.524,2.991,2.341,255.0,665.0
2015-06-21,Athens,Greece,23.7167,37.9667,[23.2167 37.4667 24.2167 38.4667],2.135,1.387,2.738,2.1,2.237,1.5,2.927,2.314,245.0,662.0
2015-06-22,Athens,Greece,23.7167,37.9667,[23.2167 37.4667 24.2167 38.4667],2.135,1.387,2.845,2.097,2.189,1.463,2.879,2.258,248.0,632.0
2015-06-23,Athens,Greece,23.7167,37.9667,[23.2167 37.4667 24.2167 38.4667],2.148,1.421,2.892,2.137,2.103,1.428,2.786,2.196,229.0,590.0
2015-06-24,Athens,Greece,23.7167,37.9667,[23.2167 37.4667 24.2167 38.4667],2.138,1.394,2.892,2.135,2.109,1.44,2.778,2.194,252.0,584.0